Date,TemperatureHighF,TemperatureAvgF,TemperatureLowF,DewpointHighF,DewpointAvgF,DewpointLowF,HumidityHigh,HumidityAvg,HumidityLow,PressureMaxIn,PressureMinIn,WindSpeedMaxMPH,WindSpeedAvgMPH,GustSpeedMaxMPH,PrecipitationSumIn
2013-1-1,32,24,15,29,16,9,89,71,58,30.19,30.06,11,2,13,0.01
2013-1-2,22,18,11,17,13,8,86,81,72,30.29,30.16,9,3,11,0.00
2013-1-3,29,22,11,24,15,4,84,76,68,30.22,30.13,16,6,18,0.00
2013-1-4,29,24,19,22,18,14,84,77,70,30.19,30.09,30,10,30,0.00
2013-1-5,34,27,19,30,22,15,88,83,76,30.28,30.02,18,4,18,0.00
2013-1-6,36,33,30,32,29,25,89,83,74,30.23,29.90,18,6,20,0.00
2013-1-7,34,30,25,27,25,21,86,81,75,30.38,30.15,18,4,21,0.00
2013-1-8,39,30,23,30,24,19,86,81,71,30.24,30.13,14,3,18,0.00
2013-1-9,46,39,30,35,32,26,88,76,62,30.43,30.03,22,6,23,0.00
2013-1-10,40,34,26,33,29,23,90,82,71,30.52,30.09,7,0,10,0.00
2013-1-11,60,48,37,53,44,32,94,87,74,30.09,29.68,28,4,28,0.55
2013-1-12,59,53,49,54,49,44,94,87,81,29.90,29.70,15,4,19,0.31
2013-1-13,54,42,33,52,40,30,95,93,89,30.01,29.61,17,2,20,1.66
2013-1-14,33,26,23,30,20,17,88,77,69,30.44,30.01,19,5,22,0.00
2013-1-15,30,25,18,21,18,15,89,76,60,30.43,30.12,7,0,7,0.00
2013-1-16,36,30,24,27,23,20,88,76,60,30.13,29.87,18,6,22,0.00
2013-1-17,40,33,21,30,23,9,87,69,51,30.34,30.00,14,2,17,0.00
2013-1-18,36,29,21,26,19,10,81,68,59,30.45,30.04,10,1,10,0.00
2013-1-19,50,41,35,36,30,25,73,64,53,30.04,29.68,0,0,0,0.00
2013-1-20,44,27,19,36,15,7,73,59,49,30.19,29.68,0,0,0,0.00
2013-1-21,20,17,9,12,7,2,81,65,48,30.16,29.98,23,2,30,0.00
2013-1-22,12,7,2,5,0,-3,84,70,56,30.31,30.12,19,2,22,0.00
2013-1-23,18,13,6,13,4,-2,85,69,51,30.30,30.07,5,0,9,0.00
2013-1-24,23,16,10,13,6,0,85,66,40,30.58,30.08,7,1,13,0.00
2013-1-25,22,19,16,19,14,9,89,80,71,30.49,30.02,7,2,10,0.03
2013-1-26,27,24,22,21,17,13,89,75,57,30.44,30.06,7,1,12,0.00
2013-1-27,32,24,14,27,17,10,84,77,70,30.48,30.13,0,0,0,0.01
2013-1-28,49,42,32,47,40,27,95,93,81,30.13,29.90,0,0,0,0.17
2013-1-29,60,51,39,56,49,37,96,91,85,30.02,29.50,20,6,28,0.01
2013-1-30,64,52,34,58,48,27,94,87,74,29.50,29.18,26,4,35,0.32
2013-1-31,34,24,17,27,15,6,84,69,56,29.92,29.35,0,0,0,0.00
2013-2-1,19,14,11,10,6,4,79,70,60,30.30,29.92,19,1,22,0.00
2013-2-2,24,19,14,20,15,7,89,84,73,30.25,29.95,15,1,16,0.06
2013-2-3,21,17,10,16,12,6,86,81,72,30.03,29.90,5,0,7,0.00
2013-2-4,24,21,17,21,18,13,90,86,79,30.04,29.86,10,1,10,0.05
2013-2-5,29,24,20,26,21,18,91,87,81,29.97,29.84,5,0,5,0.04
2013-2-6,30,26,18,26,17,12,89,69,54,30.31,29.97,0,0,0,0.00
2013-2-7,40,31,22,30,24,16,90,77,64,30.27,29.81,0,0,1,0.01
2013-2-8,33,29,23,31,25,17,93,83,72,30.34,29.75,0,0,0,0.05
2013-2-9,32,24,15,22,18,12,88,78,66,30.45,30.28,0,0,0,0.00
2013-2-10,46,34,21,41,27,18,89,76,62,30.28,29.72,0,0,3,0.01
2013-2-11,47,39,33,43,32,24,92,75,64,29.93,29.62,0,0,0,0.00
2013-2-12,37,33,30,27,25,23,80,72,65,30.08,29.93,0,0,0,0.00
2013-2-13,37,30,27,28,24,21,86,78,68,29.93,29.76,0,0,1,0.00
2013-2-14,42,36,30,36,31,26,90,81,63,29.90,29.73,0,0,0,0.00
2013-2-15,35,30,25,26,21,14,80,68,52,30.13,29.90,0,0,0,0.00
2013-2-16,28,23,17,20,15,8,83,72,57,30.12,29.98,0,0,0,0.00
2013-2-17,27,20,14,12,10,7,86,67,44,30.21,30.06,0,0,0,0.00
2013-2-18,50,34,18,36,23,10,75,64,52,30.22,29.64,0,0,0,0.00
2013-2-19,47,28,18,40,22,9,88,76,63,30.00,29.50,0,0,0,0.08
2013-2-20,22,20,17,17,14,10,88,75,62,30.25,30.00,0,0,0,0.03
2013-2-21,26,23,21,19,16,14,80,75,70,30.36,30.24,0,0,0,0.00
2013-2-22,35,29,22,34,26,17,94,89,78,30.24,29.89,0,0,0,0.21
2013-2-23,34,31,28,32,24,20,90,75,63,29.96,29.90,0,0,0,0.00
2013-2-24,37,30,24,27,23,19,81,74,64,30.16,29.92,0,0,0,0.00
2013-2-25,42,31,22,29,24,19,90,76,58,30.23,30.06,2,0,3,0.00
2013-2-26,35,32,30,34,29,24,94,87,79,30.08,29.45,0,0,0,1.25
2013-2-27,37,35,32,35,33,30,94,93,92,29.62,29.45,0,0,1,0.25
2013-2-28,40,34,32,34,31,28,94,86,73,29.95,29.59,0,0,0,0.01
2013-3-1,32,29,27,29,23,20,88,77,72,30.10,29.95,0,0,0,0.00
2013-3-2,29,27,25,22,20,18,83,76,70,30.08,30.04,0,0,0,0.00
2013-3-3,31,25,22,18,16,14,79,69,53,30.07,30.01,0,0,0,0.00
2013-3-4,37,28,17,22,19,14,87,70,50,30.16,30.06,0,0,5,0.00
2013-3-5,31,28,25,26,23,22,88,83,77,30.11,29.76,2,0,5,0.00
2013-3-6,39,34,29,30,27,24,84,77,69,30.21,29.77,0,0,0,0.00
2013-3-7,38,35,32,31,27,21,85,74,63,30.39,30.20,0,0,0,0.00
2013-3-8,44,34,25,29,24,20,82,67,51,30.49,30.39,4,0,7,0.00
2013-3-9,50,38,27,36,30,24,88,75,55,30.41,30.03,2,0,3,0.00
2013-3-10,66,54,38,47,40,34,83,61,41,30.03,29.82,0,0,1,0.00
2013-3-11,56,50,38,49,44,32,88,80,61,29.85,29.50,0,0,0,0.19
2013-3-12,38,34,32,33,29,25,89,79,69,29.96,29.76,0,0,0,0.01
2013-3-13,33,30,27,28,22,17,86,71,58,30.23,29.91,0,0,0,0.00
2013-3-14,42,32,23,24,20,17,77,63,47,30.28,30.12,0,0,0,0.03
2013-3-15,45,37,30,38,31,23,92,79,66,30.12,29.84,0,0,0,0.00
2013-3-16,36,32,30,34,30,26,93,89,79,30.06,29.72,0,0,0,0.00
2013-3-17,31,29,26,26,21,18,79,72,60,30.25,30.06,0,0,1,0.00
2013-3-18,39,33,28,37,30,21,94,87,75,30.15,29.57,0,0,0,0.00
2013-3-19,36,29,24,32,19,14,87,66,52,29.98,29.69,0,0,0,0.00
2013-3-20,30,27,20,19,15,10,74,61,48,29.98,29.92,0,0,0,0.00
2013-3-21,32,25,17,22,17,11,83,72,57,29.97,29.90,0,0,0,0.00
2013-3-22,42,33,27,24,21,17,73,62,46,30.03,29.96,0,0,0,0.00
2013-3-23,41,32,25,26,23,21,84,69,51,30.09,30.02,2,0,4,0.00
2013-3-24,35,32,28,27,25,22,84,76,63,30.02,29.57,1,0,4,0.00
2013-3-25,36,33,31,33,30,26,93,89,73,29.90,29.50,0,0,0,0.08
2013-3-26,44,37,34,32,30,28,82,74,55,30.14,29.90,0,0,6,0.01
2013-3-27,46,39,32,30,27,24,85,64,44,30.23,30.14,0,0,0,0.00
2013-3-28,51,41,30,31,26,22,73,56,40,30.28,30.22,6,0,13,0.00
2013-3-29,52,42,30,28,24,20,76,51,29,30.30,30.20,9,0,11,0.00
2013-3-30,56,43,29,33,26,19,76,54,32,30.23,29.95,3,0,4,0.00
2013-3-31,60,49,41,45,36,30,86,63,35,29.94,29.66,0,0,0,0.00
2013-4-1,47,36,28,34,19,12,76,51,31,30.12,29.72,0,0,0,0.00
2013-4-2,43,33,24,20,14,11,72,48,29,30.25,30.12,0,0,0,0.00
2013-4-3,44,33,24,21,14,10,67,48,25,30.41,30.25,0,0,0,0.00
2013-4-4,57,41,26,19,14,8,66,39,15,30.37,29.96,0,0,0,0.00
2013-4-5,52,44,35,34,24,13,78,47,22,30.21,29.94,0,0,0,0.00
2013-4-6,57,45,33,25,22,18,70,43,26,30.26,29.82,0,0,0,0.00
2013-4-7,62,57,49,47,39,24,68,52,30,30.03,29.70,0,0,0,0.00
2013-4-8,72,55,40,57,44,34,81,70,54,30.05,29.75,0,0,0,0.09
2013-4-9,64,52,46,50,44,41,85,76,58,30.09,29.86,0,0,0,0.00
2013-4-10,49,46,42,45,43,40,94,92,85,29.97,29.82,0,0,0,0.06
2013-4-11,42,39,38,40,37,35,94,93,91,30.00,29.60,0,0,0,0.00
2013-4-12,42,40,38,39,36,33,95,86,73,29.84,29.51,0,0,0,0.00
2013-4-13,42,40,37,37,33,30,88,77,64,30.01,29.84,0,0,0,0.00
2013-4-14,51,43,37,42,36,32,88,77,66,30.11,29.93,0,0,0,0.00
2013-4-15,70,56,38,54,47,35,92,73,56,29.98,29.90,0,0,1,0.01
2013-4-16,61,55,49,54,49,44,93,80,60,30.21,29.90,0,0,1,0.00
2013-4-17,52,48,44,45,38,34,84,67,54,30.32,30.05,0,0,2,0.00
2013-4-18,80,62,45,65,55,40,93,79,53,30.05,29.61,39,3,40,0.00
2013-4-19,64,46,37,58,40,30,93,78,62,29.83,29.40,4,0,10,0.00
2013-4-20,40,36,32,32,27,22,86,72,54,30.21,29.83,0,0,0,0.00
2013-4-23,57,56,56,54,54,54,93,93,92,29.88,29.82,0,0,0,0.00
2013-4-24,59,44,36,54,40,29,93,85,63,30.18,29.74,0,0,0,0.00
2013-4-25,52,43,34,39,33,28,86,69,43,30.36,30.16,0,0,0,0.00
2013-4-26,60,47,32,38,33,28,87,61,38,30.47,30.35,0,0,0,0.00
2013-4-27,70,54,38,43,37,34,85,56,27,30.37,30.10,0,0,3,0.00
2013-4-28,59,55,50,57,50,37,94,84,61,30.10,29.84,0,0,0,0.00
2013-4-29,70,61,55,58,55,53,95,81,59,29.97,29.85,1,0,6,0.00
2013-4-30,75,64,52,58,55,50,91,73,53,30.08,29.96,3,0,5,0.00
2013-5-1,82,68,58,60,56,52,83,65,40,30.23,30.07,11,0,12,0.00
2013-5-2,78,66,55,55,52,47,86,63,37,30.25,30.14,2,0,6,0.05
2013-5-3,80,67,57,58,47,22,74,54,12,30.14,30.03,0,0,0,0.00
2013-5-4,69,62,56,48,44,36,70,53,32,30.11,30.03,0,0,0,0.00
2013-5-5,69,60,52,48,45,41,74,58,37,30.09,30.01,0,0,0,0.00
2013-5-6,69,61,52,52,46,40,74,58,48,30.05,29.98,0,0,0,0.00
2013-5-7,71,62,51,56,51,44,88,68,53,30.05,29.99,0,0,0,0.00
2013-5-8,78,66,56,55,51,49,83,61,40,30.02,29.94,0,0,0,0.00
2013-5-9,81,70,57,56,52,45,86,57,29,29.99,29.92,0,0,0,0.00
2013-5-10,71,63,47,62,57,42,93,80,60,29.95,29.75,0,0,0,0.31
2013-5-11,59,49,42,48,42,34,86,79,63,29.95,29.81,0,0,0,0.01
2013-5-12,50,43,38,34,31,26,82,62,42,30.12,29.94,0,0,0,0.00
2013-5-13,57,46,33,30,26,22,80,50,27,30.19,30.11,0,0,0,0.00
2013-5-14,81,62,44,57,44,30,67,53,38,30.13,29.74,0,0,0,0.00
2013-5-15,87,76,68,61,55,42,74,51,22,29.81,29.66,0,0,0,0.01
2013-5-16,84,71,56,52,45,39,70,43,22,29.99,29.80,0,0,0,0.00
2013-5-17,69,61,54,50,46,42,73,57,42,30.14,29.99,0,0,0,0.00
2013-5-18,75,63,55,56,50,45,78,63,48,30.14,30.04,0,0,0,0.00
2013-5-19,83,71,57,67,60,48,87,69,54,30.04,29.91,0,0,0,0.00
2013-5-20,91,78,66,71,65,62,88,66,43,29.96,29.82,0,0,0,0.00
2013-5-21,86,79,72,66,63,58,81,60,39,29.87,29.75,0,0,0,0.00
2013-5-22,82,73,65,65,62,58,85,70,47,29.80,29.69,0,0,0,0.00
2013-5-23,68,58,45,61,54,41,91,86,72,30.16,29.75,0,0,0,0.18
2013-5-24,60,50,42,41,38,35,90,67,44,30.35,30.15,0,0,0,0.00
2013-5-25,66,53,40,44,39,34,92,62,32,30.41,30.27,0,0,0,0.00
2013-5-26,68,57,42,42,36,26,88,51,22,30.36,30.23,0,0,0,0.00
2013-5-27,57,54,52,53,45,36,93,74,49,30.26,29.99,0,0,0,0.59
2013-5-28,80,69,55,69,63,53,95,81,68,29.99,29.87,0,0,0,0.22
2013-5-29,86,77,70,68,64,61,76,65,51,30.03,29.88,0,0,0,0.00
2013-5-30,80,72,69,68,63,61,81,75,66,30.10,30.02,0,0,0,0.00
2013-6-9,77,68,60,65,59,52,91,73,63,30.11,29.95,0,0,0,0.09
2013-6-10,76,68,65,67,65,63,94,89,68,29.95,29.75,0,0,0,0.24
2013-6-11,83,74,66,67,65,62,93,75,54,29.92,29.79,0,0,0,0.00
2013-6-12,83,74,66,72,66,63,90,77,61,29.93,29.65,0,0,0,0.02
2013-6-13,80,70,61,65,60,54,95,73,45,29.92,29.52,0,0,0,1.55
2013-6-14,77,69,61,60,58,55,87,68,48,30.08,29.92,0,0,0,0.00
2013-6-15,80,68,59,65,59,54,86,74,47,30.12,29.96,0,0,0,0.01
2013-6-16,82,74,66,67,65,61,93,75,56,29.96,29.85,0,0,0,0.42
2013-6-17,85,76,66,71,64,59,93,70,43,29.95,29.88,0,0,0,0.00
2013-6-18,75,68,62,64,59,50,88,73,59,30.07,29.88,0,0,0,0.00
2013-6-19,74,65,53,57,49,43,75,59,44,30.17,30.06,0,0,0,0.00
2013-6-20,84,70,53,58,53,48,86,59,34,30.23,30.16,0,0,0,0.00
2013-6-21,89,76,64,64,59,56,81,57,35,30.23,30.08,0,0,0,0.00
2013-6-22,91,77,70,73,67,59,90,71,50,30.13,30.00,0,0,0,0.67
2013-6-23,90,79,71,72,68,63,89,72,48,30.12,30.00,0,0,0,0.00
2013-6-24,86,78,68,71,68,64,88,73,57,30.11,29.97,0,0,0,0.00
2013-6-25,89,78,68,75,69,64,91,73,56,30.02,29.83,0,0,0,0.47
2013-6-26,85,74,66,72,68,64,92,83,62,29.96,29.76,0,0,0,0.24
2013-6-27,84,74,66,73,69,63,94,85,66,29.79,29.66,0,0,0,0.90
2013-6-28,82,70,64,69,65,61,95,85,55,29.66,29.55,0,0,0,0.15
2013-6-29,78,67,61,66,63,60,94,88,63,29.73,29.57,0,0,0,1.78
2013-6-30,74,69,63,63,61,58,89,76,64,29.93,29.73,0,0,0,0.00
2013-7-1,68,64,62,62,58,53,93,81,67,30.04,29.92,0,0,0,0.21
2013-7-2,71,66,62,66,62,58,94,89,81,30.07,29.99,0,0,0,0.11
2013-7-3,84,73,65,70,66,63,95,79,54,30.12,30.04,0,0,0,0.01
2013-7-4,81,74,69,69,68,66,92,82,62,30.16,30.09,0,0,0,0.00
2013-7-5,82,75,69,70,68,67,95,81,63,30.14,30.07,0,0,0,0.07
2013-7-6,79,73,70,73,69,67,95,88,74,30.14,30.02,0,0,0,1.77
2013-7-7,81,72,67,70,67,63,95,84,65,30.08,30.00,0,0,0,0.00
2013-7-8,85,74,68,75,69,64,93,85,72,30.08,30.01,0,0,0,0.45
2013-7-9,87,76,71,77,72,67,95,89,62,30.02,29.93,0,0,0,0.29
2013-7-10,87,76,66,78,71,63,94,84,68,29.95,29.81,0,0,0,0.98
2013-7-11,80,71,64,63,59,55,84,67,44,30.07,29.95,0,0,0,0.00
2013-7-12,79,70,60,65,60,56,91,73,52,30.16,30.07,0,0,0,0.00
2013-7-13,81,74,65,69,66,61,92,77,63,30.21,30.13,0,0,0,0.00
2013-7-14,87,78,68,73,70,65,93,77,60,30.26,30.20,0,0,0,0.00
2013-7-15,93,83,73,77,73,70,90,73,54,30.31,30.24,0,0,0,0.00
2013-7-16,90,84,78,76,74,72,85,72,58,30.33,30.26,0,0,0,0.00
2013-7-17,92,84,75,78,74,71,87,75,57,30.31,30.18,0,0,0,0.00
2013-7-18,95,85,75,77,74,72,91,73,53,30.19,30.00,0,0,0,0.00
2013-7-19,93,84,76,76,74,67,88,71,54,30.01,29.80,0,0,0,0.00
2013-7-20,88,78,71,73,70,65,94,78,55,29.93,29.78,0,0,0,0.85
2013-7-21,84,75,69,68,65,63,88,72,55,30.01,29.92,0,0,0,0.00
2013-7-22,79,72,68,71,67,64,93,84,72,29.97,29.79,0,0,0,0.30
2013-7-23,85,74,66,71,66,56,93,79,54,29.87,29.71,0,0,0,0.00
2013-7-24,72,64,56,56,53,50,84,67,50,30.06,29.88,0,0,0,0.00
2013-7-25,78,66,56,59,55,50,86,67,43,30.12,30.06,0,0,0,0.00
2013-7-26,80,69,56,62,58,53,91,69,48,30.12,29.93,0,0,0,0.00
2013-7-27,76,67,59,66,62,54,92,84,68,29.94,29.76,0,0,0,0.20
2013-7-28,66,60,52,56,52,49,90,76,60,30.03,29.89,0,0,0,0.02
2013-7-29,74,62,53,59,54,49,88,75,57,30.20,30.03,0,0,0,0.00
2013-7-30,79,68,55,63,58,52,94,74,51,30.25,30.14,0,0,0,0.00
2013-7-31,78,71,66,67,64,61,94,80,65,30.14,29.92,0,0,0,0.03
2013-8-1,80,71,64,67,62,55,94,75,47,29.96,29.90,0,0,0,0.01
2013-8-2,74,66,57,67,60,53,91,81,67,30.00,29.87,0,0,0,0.12
2013-8-3,80,72,64,65,60,54,94,69,42,30.04,29.93,0,0,0,0.00
2013-8-4,76,67,58,57,55,53,85,67,47,30.18,30.04,0,0,0,0.00
2013-8-5,74,66,57,60,56,52,86,71,51,30.14,29.99,0,0,0,0.00
2013-8-6,81,72,64,66,62,60,88,73,55,29.99,29.92,0,0,0,0.00
2013-8-7,82,74,67,74,68,64,94,84,71,29.97,29.87,0,0,0,1.03
2013-8-8,77,72,69,70,67,65,93,84,74,30.01,29.92,0,0,0,0.00
2013-8-9,80,72,65,64,59,54,82,64,46,30.04,29.96,0,0,0,0.00
2013-8-10,76,70,64,65,63,60,87,78,69,30.14,30.03,0,0,0,0.00
2013-8-11,81,71,60,62,60,56,92,70,44,30.14,30.05,0,0,0,0.00
2013-8-12,79,72,66,70,64,61,88,77,65,30.09,29.86,0,0,0,0.00
2013-8-13,72,65,60,66,55,48,92,71,48,30.07,29.85,0,0,0,0.00
2013-8-14,71,61,50,52,49,45,85,65,46,30.18,30.07,0,0,0,0.00
2013-8-15,75,63,50,55,51,47,90,68,43,30.20,30.11,0,0,0,0.00
2013-8-16,78,67,56,58,53,50,88,64,39,30.21,30.14,0,0,0,0.00
2013-8-17,77,67,55,63,57,52,93,73,51,30.27,30.19,0,0,0,0.00
2013-8-18,80,71,60,64,59,52,94,70,39,30.23,30.13,0,0,0,0.00
2013-8-19,84,71,59,63,60,56,91,69,45,30.15,30.06,0,0,0,0.00
2013-8-20,87,75,62,67,63,59,90,69,46,30.18,30.09,0,0,0,0.00
2013-8-21,87,76,66,70,66,61,86,73,52,30.18,30.03,0,0,0,0.00
2013-8-22,82,74,67,70,67,63,93,81,64,30.08,30.00,0,0,0,0.04
2013-8-23,83,73,65,67,60,54,93,67,41,30.20,30.06,0,0,0,0.00
2013-8-24,82,71,61,64,58,52,93,67,42,30.33,30.20,0,0,0,0.00
2013-8-25,87,73,58,64,60,54,86,65,41,30.32,30.19,0,0,0,0.00
2013-8-26,89,77,65,71,66,60,84,69,52,30.22,30.02,0,0,0,0.00
2013-8-27,86,78,72,76,72,68,90,81,69,30.04,29.89,0,0,0,0.03
2013-8-28,85,78,73,76,72,70,93,82,71,30.01,29.83,0,0,0,0.19
2013-8-29,86,76,68,71,68,64,94,78,50,30.09,30.01,0,0,0,0.00
2013-8-30,89,77,66,72,68,64,95,76,51,30.02,29.79,0,0,0,0.00
2013-8-31,86,76,68,72,68,64,90,80,57,29.86,29.76,0,0,0,0.00
2013-9-1,82,75,71,71,70,68,93,84,68,29.85,29.76,0,0,0,0.00
2013-9-2,81,72,62,70,64,54,95,76,47,29.93,29.76,0,0,0,0.07
2013-9-3,75,65,59,57,54,50,83,68,52,30.05,29.93,0,0,0,0.00
2013-9-4,82,68,54,60,56,51,92,69,40,30.13,30.04,0,0,0,0.00
2013-9-5,74,66,58,60,53,40,88,64,31,30.26,30.10,0,0,0,0.00
2013-9-6,77,64,51,53,50,47,91,63,37,30.29,30.10,0,0,0,0.00
2013-9-7,84,69,57,68,59,48,82,70,53,30.10,29.92,0,0,0,0.01
2013-9-8,75,70,62,67,63,57,89,79,66,30.08,29.94,0,0,0,0.00
2013-9-9,87,68,59,74,62,53,93,82,59,30.08,29.93,0,0,0,0.32
2013-9-10,97,84,74,74,69,64,89,64,35,30.07,29.95,0,0,0,0.00
2013-9-11,94,81,73,72,68,65,84,68,40,30.09,29.94,0,0,0,0.00
2013-9-12,81,71,59,69,63,53,94,79,44,30.00,29.85,0,0,0,0.58
2013-9-13,64,56,49,52,46,42,83,70,52,30.15,29.97,0,0,0,0.00
2013-9-14,69,55,43,49,43,39,88,66,38,30.21,30.11,0,0,0,0.00
2013-9-15,70,58,48,55,49,44,92,75,42,30.15,30.02,0,0,0,0.06
2013-9-16,66,58,52,56,52,46,95,81,61,30.36,30.13,0,0,0,0.01
2013-9-17,68,56,44,53,48,42,93,73,51,30.39,30.22,0,0,0,0.00
2013-9-18,78,62,52,62,55,49,90,77,48,30.23,30.05,0,0,0,0.00
2013-9-19,82,70,62,68,64,58,93,81,60,30.07,29.95,0,0,0,0.00
2013-9-20,85,74,68,71,68,65,94,83,59,29.97,29.76,0,0,0,0.23
2013-9-21,71,64,55,66,56,48,95,77,49,29.89,29.71,0,0,0,0.56
2013-9-22,63,55,48,49,44,41,91,68,50,30.08,29.89,0,0,0,0.00
2013-9-23,63,54,47,49,45,43,90,75,54,30.19,30.07,0,0,0,0.00
2013-9-24,66,54,43,50,46,40,94,76,51,30.16,30.00,0,0,0,0.00
2013-9-25,70,58,49,59,53,47,94,83,60,30.01,29.94,0,0,0,0.00
2013-9-26,74,61,51,59,51,45,94,75,36,30.14,29.99,0,0,0,0.01
2013-9-27,73,62,52,62,54,50,95,77,52,30.23,30.14,0,0,0,0.00
2013-9-28,81,65,50,57,53,48,94,68,36,30.20,30.04,0,0,0,0.00
2013-9-29,65,62,60,62,58,53,95,85,68,30.05,29.98,0,0,0,0.25
2013-9-30,71,62,57,59,57,54,95,84,61,30.04,29.95,0,0,0,0.00
2013-10-1,75,65,56,63,59,53,95,82,64,30.06,29.98,0,0,0,0.01
2013-10-2,82,70,62,64,59,56,93,72,45,30.10,30.00,0,0,0,0.00
2013-10-3,80,70,62,68,64,57,91,80,63,30.07,29.96,0,0,0,0.00
2013-10-4,77,70,66,70,66,63,91,88,76,30.06,29.99,0,0,0,0.14
2013-10-5,73,68,65,70,66,63,96,93,88,30.07,29.89,0,0,0,0.69
2013-10-6,73,66,56,68,63,52,94,90,78,29.89,29.67,0,0,0,0.50
2013-10-7,60,53,45,54,46,41,92,76,60,30.15,29.75,0,0,0,0.00
2013-10-8,68,55,41,50,44,39,94,71,35,30.31,30.15,0,0,0,0.00
2013-10-9,69,57,44,50,46,40,93,72,37,30.32,30.22,0,0,0,0.00
2013-10-10,70,56,44,51,47,42,94,74,43,30.24,30.13,0,0,0,0.00
2013-10-11,72,59,48,61,53,46,93,82,49,30.15,30.08,0,0,0,0.00
2013-10-12,78,64,52,61,55,50,95,77,43,30.12,30.05,0,0,0,0.00
2013-10-13,71,63,54,59,49,40,90,64,33,30.34,30.10,0,0,0,0.00
2013-10-14,64,54,46,51,46,42,89,74,54,30.40,30.26,0,0,0,0.00
2013-10-15,63,54,44,61,51,41,93,89,84,30.26,29.88,0,0,0,0.27
2013-10-16,63,59,49,61,52,44,94,78,57,29.95,29.85,0,0,0,0.02
2013-10-17,51,48,42,48,44,40,92,88,83,29.94,29.81,0,0,0,0.06
2013-10-18,64,52,41,49,43,38,92,74,48,29.96,29.88,0,0,0,0.00
2013-10-19,48,44,42,42,40,37,92,85,74,29.95,29.81,0,0,0,0.24
2013-10-20,62,50,41,44,40,36,83,69,43,29.96,29.88,0,0,0,0.00
2013-10-21,60,52,42,48,44,36,90,74,63,29.92,29.84,0,0,0,0.05
2013-10-22,49,41,33,37,32,27,85,70,46,29.99,29.89,0,0,0,0.00
2013-10-23,48,40,34,36,33,30,91,78,51,29.98,29.83,0,0,0,0.00
2013-10-24,46,39,34,35,32,30,87,77,53,30.20,29.97,0,0,0,0.00
2013-10-25,48,38,31,36,30,28,92,75,48,30.36,30.17,0,0,0,0.00
2013-10-26,50,43,37,40,32,28,86,67,58,30.17,29.85,0,0,0,0.04
2013-10-27,53,43,35,38,34,31,89,71,46,30.10,30.02,0,0,0,0.00
2013-10-28,54,43,33,43,36,29,86,75,62,30.36,30.07,0,0,0,0.00
2013-10-29,54,44,35,44,38,32,89,80,62,30.42,30.24,0,0,0,0.00
2013-10-30,65,52,36,56,46,34,93,80,56,30.23,29.96,0,0,0,0.01
2013-10-31,63,61,59,60,58,56,94,91,84,29.96,29.67,0,0,0,0.47
2013-11-6,57,52,45,54,48,41,91,88,85,30.01,29.89,0,0,0,0.14
2013-11-7,46,42,38,41,33,29,88,70,54,30.17,30.01,0,0,0,0.03
2013-11-8,46,38,35,33,31,28,89,75,53,30.32,30.15,0,0,0,0.02
2013-11-9,58,49,37,43,37,31,80,65,54,30.20,29.87,0,0,0,0.00
2013-11-10,49,44,37,40,32,27,77,62,52,30.30,29.96,0,0,0,0.00
2013-11-11,47,39,29,39,33,24,92,79,62,30.31,30.05,0,0,0,0.13
2013-11-12,35,29,24,24,21,18,82,70,53,30.55,30.31,0,0,0,0.01
2013-11-13,36,30,22,24,21,18,84,72,58,30.55,30.24,0,0,0,0.00
2013-11-14,51,38,29,30,25,22,77,62,38,30.23,30.06,0,0,0,0.00
2013-11-15,49,43,37,32,29,25,73,60,49,30.10,30.04,0,0,0,0.00
2013-11-16,59,56,52,52,50,47,85,81,74,30.04,29.84,0,0,0,0.00
2013-11-17,67,60,53,59,55,44,90,83,63,29.85,29.34,0,0,0,0.33
2013-11-19,42,36,30,26,25,24,77,64,50,30.40,30.16,0,0,0,0.00
2013-11-20,45,36,27,30,26,22,82,69,50,30.42,30.24,0,0,0,0.00
2013-11-21,46,43,38,44,39,30,94,84,69,30.31,30.18,0,0,0,0.37
2013-11-22,48,42,31,46,39,26,95,88,72,30.38,30.15,0,0,0,0.04
2013-11-23,32,27,19,26,18,9,89,71,47,30.53,30.29,0,0,0,0.00
2013-11-24,27,20,15,15,11,7,80,67,48,30.61,30.46,0,0,0,0.00
2013-11-25,32,26,19,23,17,14,80,69,54,30.46,30.14,0,0,0,0.00
2013-11-26,34,32,30,28,26,23,82,77,71,30.14,29.93,0,0,0,0.00
2013-11-27,31,26,21,25,16,12,79,64,52,30.21,29.91,0,0,0,0.00
2013-11-28,29,26,20,20,16,12,84,67,57,30.41,30.22,0,0,0,0.00
2013-11-29,36,29,26,21,20,18,77,67,49,30.64,30.42,0,0,0,0.00
2013-11-30,47,35,26,30,25,20,81,69,50,30.55,30.12,0,0,0,0.00
2013-12-1,46,38,31,35,30,26,81,75,65,30.12,29.98,0,0,0,0.00
2013-12-2,40,34,31,31,29,26,91,80,65,30.00,29.88,4,0,7,0.00
2013-12-3,43,38,34,40,34,28,90,86,78,29.89,29.82,6,2,12,0.01
2013-12-4,58,50,38,53,46,36,93,87,82,29.90,29.67,14,4,15,0.00
2013-12-5,60,44,32,55,37,23,88,76,67,30.16,29.67,20,10,28,0.00
2013-12-6,32,30,25,23,21,16,73,69,63,30.39,30.14,12,2,16,0.00
2013-12-7,27,22,18,17,13,11,74,66,56,30.60,30.39,12,2,14,0.00
2013-12-8,29,24,18,25,18,10,90,78,69,30.58,29.99,12,3,18,0.01
2013-12-9,31,27,20,29,22,12,92,81,69,30.16,29.92,22,9,29,0.00
2013-12-10,26,20,13,12,10,4,76,65,51,30.23,30.00,25,10,33,0.00
2013-12-11,25,20,16,19,13,8,87,76,68,30.34,30.23,14,6,24,0.02
2013-12-12,18,12,6,8,5,0,84,72,61,30.48,30.23,18,5,26,0.00
2013-12-13,31,23,14,24,15,7,84,71,64,30.25,30.18,12,3,18,0.00
2013-12-14,30,26,21,28,23,19,93,91,82,30.23,29.78,15,3,16,0.27
2013-12-15,25,20,14,22,15,9,90,83,78,30.06,29.81,21,8,28,0.00
2013-12-16,20,15,7,16,9,4,88,79,68,30.19,29.99,11,2,14,0.04
2013-12-17,24,22,18,21,19,15,90,88,86,30.04,29.93,16,5,21,0.01
2013-12-18,28,23,18,21,18,14,90,80,69,30.17,29.94,14,6,21,0.00
2013-12-19,42,36,28,36,30,20,83,77,67,30.00,29.90,11,3,17,0.00
2013-12-20,54,45,40,52,42,35,95,92,80,29.90,29.74,13,4,17,0.27
2013-12-21,55,41,33,54,39,32,94,94,92,29.85,29.61,13,4,24,1.46
2013-12-22,43,37,33,41,35,32,96,90,83,29.99,29.49,25,7,35,0.23
2013-12-23,35,31,23,32,26,16,89,80,70,30.32,29.99,17,9,24,0.00
2013-12-24,22,17,12,13,10,6,84,74,64,30.54,30.32,13,6,22,0.00
2013-12-25,26,22,14,23,17,11,88,82,72,30.50,30.15,13,5,18,0.00
2013-12-26,29,27,26,26,22,17,91,79,66,30.31,30.07,19,7,23,0.02
2013-12-27,41,35,28,33,29,23,84,79,74,30.33,30.15,11,4,17,0.00
2013-12-28,48,40,35,38,33,31,83,77,70,30.15,29.95,13,7,23,0.00
2013-12-29,44,37,28,35,30,22,88,77,67,30.00,29.71,19,6,21,0.00
2013-12-30,28,22,19,22,13,9,79,67,57,30.26,30.00,16,3,20,0.00
2013-12-31,21,18,16,15,12,9,86,76,67,30.33,30.09,20,9,26,0.00
2014-1-1,19,18,17,17,15,13,89,87,85,30.33,30.14,14,3,19,0.16
2014-1-2,19,14,6,17,11,2,90,88,84,30.25,30.00,16,6,26,0.06